{"data":{"norad_id":57370,"epoch":"2026-05-24T18:34:28.592256Z","epoch_age_seconds":94858,"freshness":"FRESH","line1":"1 57370U 23099AU  26144.77394204  .00000902  00000+0  42285-4 0  9993","line2":"2 57370  43.0030 172.1347 0000710 281.7771  78.3001 15.27573897157837","mean_motion":15.27573897,"eccentricity":7.1e-5,"inclination_deg":43.003,"raan_deg":172.1347,"arg_perigee_deg":281.7771,"mean_anomaly_deg":78.3001,"bstar":4.2285e-5,"rev_number":15783,"period_min":94.267125330435,"perigee_km":482.58022516772,"apogee_km":483.55451618836,"semimajor_km":6861.204370678,"source":"CELESTRAK","updated_at":"2026-05-25T13:38:18.294751Z"}}